Time,TemperatureF,DewpointF,PressureIn,WindDirection,WindDirectionDegrees,WindSpeedMPH,WindSpeedGustMPH,Humidity,HourlyPrecipIn,Conditions,Clouds,dailyrainin,SoftwareType,DateUTC
2013-05-27 00:02:00,57.0,52.0,-100.00,ESE,105,12.0,21.0,85,0.00,,,0.00,,2013-05-27 04:02:00,
2013-05-27 00:12:00,57.0,52.0,-100.00,ESE,105,17.0,23.0,84,0.00,,,0.00,,2013-05-27 04:12:00,
2013-05-27 00:23:00,57.0,52.0,-100.00,East,95,14.0,20.0,84,0.00,,,0.00,,2013-05-27 04:23:00,
2013-05-27 00:33:00,57.0,52.0,-100.00,East,95,16.0,20.0,84,0.00,,,0.00,,2013-05-27 04:33:00,
2013-05-27 00:43:00,57.0,52.0,-100.00,ESE,120,14.0,26.0,84,0.00,,,0.00,,2013-05-27 04:43:00,
2013-05-27 00:52:00,57.0,52.0,-100.00,ESE,115,18.0,24.0,84,0.00,,,0.00,,2013-05-27 04:52:00,
2013-05-27 01:02:00,56.0,52.0,-100.00,ESE,105,16.0,24.0,85,0.00,,,0.00,,2013-05-27 05:02:00,
2013-05-27 01:12:00,56.0,52.0,-100.00,ESE,115,14.0,22.0,85,0.00,,,0.00,,2013-05-27 05:12:00,
2013-05-27 01:22:00,57.0,52.0,-100.00,ESE,110,14.0,21.0,85,0.00,,,0.00,,2013-05-27 05:22:00,
2013-05-27 01:32:00,57.0,52.0,-100.00,ESE,115,12.0,21.0,85,0.00,,,0.00,,2013-05-27 05:32:00,
2013-05-27 01:42:00,57.0,52.0,-100.00,ESE,110,15.0,21.0,86,0.00,,,0.00,,2013-05-27 05:42:00,
2013-05-27 01:52:00,56.0,54.0,-100.00,ESE,110,11.0,21.0,87,0.00,,,0.00,,2013-05-27 05:52:00,
2013-05-27 02:01:00,56.0,54.0,-100.00,ESE,110,15.0,21.0,88,0.00,,,0.00,,2013-05-27 06:01:00,
2013-05-27 02:11:00,56.0,54.0,-100.00,ESE,105,14.0,23.0,88,0.00,,,0.00,,2013-05-27 06:11:00,
2013-05-27 02:21:00,56.0,54.0,-100.00,East,100,12.0,17.0,89,0.00,,,0.00,,2013-05-27 06:21:00,
2013-05-27 02:32:00,56.0,54.0,-100.00,ESE,110,12.0,17.0,89,0.00,,,0.00,,2013-05-27 06:32:00,
2013-05-27 02:42:00,56.0,54.0,-100.00,ESE,115,13.0,19.0,90,0.00,,,0.00,,2013-05-27 06:42:00,
2013-05-27 02:52:00,56.0,54.0,-100.00,ESE,110,14.0,20.0,90,0.00,,,0.00,,2013-05-27 06:52:00,
2013-05-27 03:02:00,56.0,54.0,-100.00,ESE,105,12.0,20.0,90,0.00,,,0.00,,2013-05-27 07:02:00,
2013-05-27 03:11:00,56.0,54.0,-100.00,ESE,115,10.0,17.0,91,0.00,,,0.00,,2013-05-27 07:11:00,
2013-05-27 03:21:00,56.0,54.0,-100.00,ESE,105,14.0,18.0,91,0.00,,,0.00,,2013-05-27 07:21:00,
2013-05-27 03:32:00,56.0,54.0,-100.00,SE,125,12.0,17.0,91,0.00,,,0.00,,2013-05-27 07:32:00,
2013-05-27 03:42:00,56.0,54.0,-100.00,SE,125,13.0,16.0,92,0.00,,,0.00,,2013-05-27 07:42:00,
2013-05-27 03:52:00,56.0,54.0,-100.00,SE,125,12.0,16.0,92,0.00,,,0.00,,2013-05-27 07:52:00,
2013-05-27 04:02:00,56.0,54.0,-100.00,SE,125,12.0,17.0,92,0.00,,,0.00,,2013-05-27 08:02:00,
2013-05-27 04:11:00,56.0,54.0,-100.00,SE,125,9.0,13.0,93,0.00,,,0.00,,2013-05-27 08:11:00,
2013-05-27 04:22:00,56.0,54.0,-100.00,ESE,120,9.0,12.0,93,0.00,,,0.00,,2013-05-27 08:22:00,
2013-05-27 04:32:00,56.0,54.0,-100.00,ESE,110,9.0,11.0,94,0.00,,,0.00,,2013-05-27 08:32:00,
2013-05-27 04:42:00,56.0,54.0,-100.00,East,100,10.0,12.0,94,0.00,,,0.00,,2013-05-27 08:42:00,
2013-05-27 04:52:00,55.0,54.0,-100.00,East,100,11.0,15.0,94,0.00,,,0.00,,2013-05-27 08:52:00,
2013-05-27 05:02:00,56.0,54.0,-100.00,East,90,10.0,15.0,94,0.00,,,0.00,,2013-05-27 09:02:00,
2013-05-27 05:11:00,56.0,54.0,-100.00,East,95,10.0,17.0,94,0.00,,,0.00,,2013-05-27 09:11:00,
2013-05-27 05:21:00,55.0,54.0,-100.00,East,95,11.0,15.0,94,0.00,,,0.00,,2013-05-27 09:21:00,
2013-05-27 05:33:00,56.0,54.0,-100.00,East,100,9.0,12.0,95,0.00,,,0.00,,2013-05-27 09:33:00,
2013-05-27 05:42:00,56.0,54.0,-100.00,East,100,11.0,13.0,95,0.00,,,0.00,,2013-05-27 09:42:00,
2013-05-27 05:52:00,56.0,54.0,-100.00,East,95,7.0,12.0,95,0.00,,,0.00,,2013-05-27 09:52:00,
2013-05-27 06:02:00,56.0,54.0,-100.00,East,95,9.0,12.0,95,0.00,,,0.00,,2013-05-27 10:02:00,
2013-05-27 06:12:00,56.0,54.0,-100.00,East,100,9.0,12.0,95,0.00,,,0.00,,2013-05-27 10:12:00,
2013-05-27 06:22:00,56.0,54.0,-100.00,ESE,105,7.0,12.0,95,0.00,,,0.00,,2013-05-27 10:22:00,
2013-05-27 06:32:00,56.0,54.0,-100.00,East,95,9.0,12.0,95,0.00,,,0.00,,2013-05-27 10:32:00,
2013-05-27 06:42:00,56.0,54.0,-100.00,East,90,10.0,12.0,95,0.00,,,0.00,,2013-05-27 10:42:00,
2013-05-27 06:52:00,56.0,54.0,-100.00,East,95,11.0,14.0,95,0.00,,,0.00,,2013-05-27 10:52:00,
2013-05-27 07:02:00,56.0,55.0,-100.00,East,90,9.0,13.0,95,0.00,,,0.00,,2013-05-27 11:02:00,
2013-05-27 07:11:00,56.0,55.0,-100.00,East,85,7.0,11.0,95,0.00,,,0.00,,2013-05-27 11:11:00,
2013-05-27 07:22:00,56.0,55.0,-100.00,East,95,7.0,11.0,96,0.00,,,0.00,,2013-05-27 11:22:00,
2013-05-27 07:32:00,56.0,55.0,-100.00,East,90,8.0,12.0,96,0.00,,,0.00,,2013-05-27 11:32:00,
2013-05-27 07:42:00,56.0,55.0,-100.00,East,90,9.0,13.0,96,0.00,,,0.00,,2013-05-27 11:42:00,
2013-05-27 07:52:00,56.0,55.0,-100.00,East,100,10.0,15.0,97,0.00,,,0.00,,2013-05-27 11:52:00,
2013-05-27 08:01:00,56.0,55.0,-100.00,ESE,120,12.0,16.0,97,0.00,,,0.00,,2013-05-27 12:01:00,
2013-05-27 08:11:00,55.0,55.0,-100.00,ESE,115,12.0,19.0,99,0.00,,,0.00,,2013-05-27 12:11:00,
2013-05-27 08:42:00,54.0,54.0,-100.00,East,95,12.0,16.0,99,0.00,,,0.00,,2013-05-27 12:42:00,
2013-05-27 08:52:00,54.0,54.0,-100.00,East,85,9.0,14.0,99,0.00,,,0.00,,2013-05-27 12:52:00,
2013-05-27 09:01:00,54.0,54.0,-100.00,East,95,10.0,14.0,99,0.00,,,0.00,,2013-05-27 13:01:00,
2013-05-27 09:11:00,54.0,54.0,-100.00,East,90,10.0,17.0,99,0.00,,,0.00,,2013-05-27 13:11:00,
2013-05-27 09:21:00,54.0,54.0,-100.00,East,90,11.0,17.0,99,0.00,,,0.00,,2013-05-27 13:21:00,
2013-05-27 09:32:00,54.0,54.0,-100.00,East,90,10.0,16.0,99,0.00,,,0.00,,2013-05-27 13:32:00,
2013-05-27 09:41:00,54.0,54.0,-100.00,East,80,11.0,14.0,99,0.00,,,0.00,,2013-05-27 13:41:00,
2013-05-27 09:52:00,54.0,54.0,-100.00,East,85,11.0,17.0,99,0.00,,,0.00,,2013-05-27 13:52:00,
2013-05-27 10:01:00,54.0,54.0,-100.00,East,85,12.0,19.0,99,0.00,,,0.00,,2013-05-27 14:01:00,
2013-05-27 10:11:00,54.0,54.0,-100.00,East,80,12.0,17.0,99,0.00,,,0.00,,2013-05-27 14:11:00,
2013-05-27 10:21:00,54.0,54.0,-100.00,ENE,75,12.0,18.0,99,0.00,,,0.00,,2013-05-27 14:21:00,
2013-05-27 11:33:00,55.0,55.0,-100.00,East,90,14.0,18.0,99,0.00,,,0.00,,2013-05-27 15:33:00,
2013-05-27 11:43:00,55.0,55.0,-100.00,East,90,15.0,22.0,99,0.00,,,0.00,,2013-05-27 15:43:00,
2013-05-27 11:53:00,55.0,55.0,-100.00,East,95,14.0,22.0,99,0.00,,,0.00,,2013-05-27 15:53:00,
2013-05-27 12:23:00,55.0,55.0,-100.00,East,100,17.0,21.0,99,0.00,,,0.00,,2013-05-27 16:23:00,
2013-05-27 12:33:00,56.0,55.0,-100.00,East,90,11.0,19.0,99,0.00,,,0.00,,2013-05-27 16:33:00,
2013-05-27 12:42:00,56.0,55.0,-100.00,East,90,14.0,19.0,99,0.00,,,0.00,,2013-05-27 16:42:00,
2013-05-27 13:02:00,57.0,57.0,-100.00,East,85,14.0,19.0,95,0.00,,,0.00,,2013-05-27 17:02:00,
2013-05-27 13:11:00,59.0,57.0,-100.00,ESE,105,14.0,19.0,93,0.00,,,0.00,,2013-05-27 17:11:00,
2013-05-27 13:22:00,60.0,57.0,-100.00,East,95,17.0,23.0,91,0.00,,,0.00,,2013-05-27 17:22:00,
2013-05-27 13:32:00,61.0,57.0,-100.00,East,95,17.0,23.0,89,0.00,,,0.00,,2013-05-27 17:32:00,
2013-05-27 13:43:00,60.0,57.0,-100.00,East,95,15.0,22.0,88,0.00,,,0.00,,2013-05-27 17:43:00,
2013-05-27 13:52:00,60.0,57.0,-100.00,East,100,17.0,22.0,89,0.00,,,0.00,,2013-05-27 17:52:00,
2013-05-27 14:02:00,59.0,57.0,-100.00,ESE,110,16.0,22.0,89,0.00,,,0.00,,2013-05-27 18:02:00,
2013-05-27 14:11:00,59.0,57.0,-100.00,East,90,12.0,18.0,90,0.00,,,0.00,,2013-05-27 18:11:00,
2013-05-27 14:22:00,59.0,55.0,-100.00,East,80,12.0,17.0,90,0.00,,,0.00,,2013-05-27 18:22:00,
2013-05-27 14:32:00,59.0,55.0,-100.00,East,90,10.0,14.0,90,0.00,,,0.00,,2013-05-27 18:32:00,
2013-05-27 14:42:00,59.0,55.0,-100.00,East,90,9.0,13.0,90,0.00,,,0.00,,2013-05-27 18:42:00,
2013-05-27 14:52:00,59.0,55.0,-100.00,East,95,9.0,12.0,89,0.00,,,0.00,,2013-05-27 18:52:00,
2013-05-27 15:01:00,60.0,57.0,-100.00,East,100,9.0,12.0,88,0.00,,,0.00,,2013-05-27 19:01:00,
2013-05-27 15:11:00,60.0,57.0,-100.00,ESE,110,9.0,12.0,87,0.00,,,0.00,,2013-05-27 19:11:00,
2013-05-27 15:21:00,61.0,55.0,-100.00,ESE,110,9.0,12.0,85,0.00,,,0.00,,2013-05-27 19:21:00,
2013-05-27 15:32:00,61.0,55.0,-100.00,East,85,11.0,15.0,80,0.00,,,0.00,,2013-05-27 19:32:00,
2013-05-27 15:42:00,61.0,54.0,-100.00,ENE,60,12.0,15.0,79,0.00,,,0.00,,2013-05-27 19:42:00,
2013-05-27 15:52:00,61.0,54.0,-100.00,ENE,65,9.0,15.0,79,0.00,,,0.00,,2013-05-27 19:52:00,
2013-05-27 16:01:00,61.0,55.0,-100.00,ENE,65,9.0,17.0,80,0.00,,,0.00,,2013-05-27 20:01:00,
2013-05-27 16:11:00,61.0,55.0,-100.00,ENE,70,9.0,14.0,80,0.00,,,0.00,,2013-05-27 20:11:00,
2013-05-27 16:22:00,61.0,55.0,-100.00,East,85,10.0,16.0,80,0.00,,,0.00,,2013-05-27 20:22:00,
2013-05-27 16:32:00,62.0,55.0,-100.00,East,100,15.0,19.0,79,0.00,,,0.00,,2013-05-27 20:32:00,
2013-05-27 16:42:00,62.0,55.0,-100.00,East,80,13.0,19.0,79,0.00,,,0.00,,2013-05-27 20:42:00,
2013-05-27 16:52:00,62.0,55.0,-100.00,East,90,12.0,19.0,79,0.00,,,0.00,,2013-05-27 20:52:00,
2013-05-27 17:01:00,62.0,55.0,-100.00,East,90,17.0,21.0,79,0.00,,,0.00,,2013-05-27 21:01:00,
2013-05-27 17:12:00,62.0,55.0,-100.00,East,100,14.0,20.0,79,0.00,,,0.00,,2013-05-27 21:12:00,
2013-05-27 17:21:00,63.0,55.0,-100.00,ESE,105,15.0,22.0,79,0.00,,,0.00,,2013-05-27 21:21:00,
2013-05-27 17:33:00,62.0,57.0,-100.00,East,100,16.0,25.0,80,0.00,,,0.00,,2013-05-27 21:33:00,
2013-05-27 17:43:00,62.0,55.0,-100.00,ESE,105,13.0,21.0,81,0.00,,,0.00,,2013-05-27 21:43:00,
2013-05-27 17:53:00,62.0,55.0,-100.00,East,100,17.0,20.0,81,0.00,,,0.00,,2013-05-27 21:53:00,
2013-05-27 18:02:00,62.0,55.0,-100.00,ESE,105,15.0,22.0,82,0.00,,,0.00,,2013-05-27 22:02:00,
2013-05-27 18:12:00,62.0,57.0,-100.00,East,90,16.0,22.0,82,0.00,,,0.00,,2013-05-27 22:12:00,
2013-05-27 18:22:00,61.0,57.0,-100.00,East,100,18.0,23.0,84,0.00,,,0.00,,2013-05-27 22:22:00,
2013-05-27 18:33:00,61.0,57.0,-100.00,ESE,110,12.0,21.0,87,0.00,,,0.00,,2013-05-27 22:33:00,
2013-05-27 18:42:00,61.0,57.0,-100.00,East,100,13.0,19.0,88,0.00,,,0.00,,2013-05-27 22:42:00,
2013-05-27 18:52:00,60.0,57.0,-100.00,East,95,13.0,19.0,88,0.00,,,0.00,,2013-05-27 22:52:00,
2013-05-27 19:02:00,60.0,57.0,-100.00,East,90,11.0,17.0,90,0.00,,,0.00,,2013-05-27 23:02:00,
2013-05-27 19:12:00,60.0,57.0,-100.00,East,90,13.0,17.0,91,0.00,,,0.00,,2013-05-27 23:12:00,
2013-05-27 19:22:00,60.0,57.0,-100.00,East,80,12.0,18.0,92,0.00,,,0.00,,2013-05-27 23:22:00,
2013-05-27 19:32:00,60.0,59.0,-100.00,East,80,7.0,14.0,93,0.00,,,0.00,,2013-05-27 23:32:00,
2013-05-27 19:42:00,59.0,59.0,-100.00,East,100,13.0,17.0,95,0.00,,,0.00,,2013-05-27 23:42:00,
2013-05-27 19:52:00,59.0,59.0,-100.00,East,85,14.0,17.0,95,0.00,,,0.00,,2013-05-27 23:52:00,
2013-05-27 20:01:00,59.0,59.0,-100.00,East,85,9.0,16.0,96,0.00,,,0.00,,2013-05-28 00:01:00,
2013-05-27 20:11:00,59.0,59.0,-100.00,East,80,8.0,14.0,96,0.00,,,0.00,,2013-05-28 00:11:00,
2013-05-27 20:21:00,59.0,59.0,-100.00,East,80,7.0,14.0,96,0.00,,,0.00,,2013-05-28 00:21:00,
2013-05-27 20:31:00,59.0,59.0,-100.00,East,80,8.0,14.0,97,0.00,,,0.00,,2013-05-28 00:31:00,
2013-05-27 20:41:00,59.0,59.0,-100.00,East,85,11.0,13.0,97,0.00,,,0.00,,2013-05-28 00:41:00,
2013-05-27 20:52:00,59.0,59.0,-100.00,East,90,11.0,15.0,97,0.00,,,0.00,,2013-05-28 00:52:00,
2013-05-27 21:01:00,59.0,59.0,-100.00,East,90,9.0,12.0,97,0.00,,,0.00,,2013-05-28 01:01:00,
2013-05-27 22:21:00,58.0,57.0,-100.00,East,85,9.0,14.0,99,0.00,,,0.00,,2013-05-28 02:21:00,
2013-05-27 22:32:00,58.0,57.0,-100.00,East,85,12.0,18.0,99,0.00,,,0.00,,2013-05-28 02:32:00,
2013-05-27 22:42:00,58.0,57.0,-100.00,East,95,12.0,17.0,99,0.00,,,0.00,,2013-05-28 02:42:00,
2013-05-27 22:52:00,58.0,57.0,-100.00,East,90,11.0,16.0,99,0.00,,,0.00,,2013-05-28 02:52:00,
2013-05-27 23:01:00,58.0,57.0,-100.00,East,95,12.0,17.0,99,0.00,,,0.00,,2013-05-28 03:01:00,
2013-05-27 23:11:00,58.0,57.0,-100.00,East,95,11.0,19.0,99,0.00,,,0.00,,2013-05-28 03:11:00,
2013-05-27 23:21:00,58.0,57.0,-100.00,East,100,12.0,17.0,99,0.00,,,0.00,,2013-05-28 03:21:00,
2013-05-27 23:33:00,57.0,57.0,-100.00,East,100,12.0,16.0,99,0.00,,,0.00,,2013-05-28 03:33:00,
2013-05-27 23:43:00,57.0,57.0,-100.00,East,95,12.0,19.0,99,0.00,,,0.00,,2013-05-28 03:43:00,
2013-05-27 23:53:00,57.0,57.0,-100.00,East,95,12.0,16.0,99,0.00,,,0.00,,2013-05-28 03:53:00,